Windsor Locks, CT

8:48 PM EST on December 17, 2017 (GMT -0500)
Bradley International

Weather History for KBDL - August, 2013

Change the Weather History Date:

Monday, August 5, 2013

  Actual Average Record
Temperature  
Mean Temperature 65 °F 73 °F  
Max Temperature 77 °F 84 °F 101 °F (1955)
Min Temperature 53 °F 63 °F 47 °F (1972)
Degree Days  
Heating Degree Days 0 0  
Month to date heating degree days 0 0  
Since 1 June heating degree days 35 43  
Since 1 July heating degree days 2 3  
Cooling Degree Days 0 8  
Month to date cooling degree days 24 43  
Year to date cooling degree days 666 495  
Since 1 June cooling degree days 612 456  
Growing Degree Days 15 (Base 50)    
Moisture  
Dew Point 48 °F    
Average Humidity 62    
Maximum Humidity 93    
Minimum Humidity 31    
Precipitation  
Precipitation 0.00 in 0.14 in 2.29 in (1995)
Month to date precipitation 1.25 0.74  
Year to date precipitation 32.37 27.08  
Snow  
Snow 0.00 in 0.00 in 0.00 in (2002)
Month to date snowfall 0.0 0.0  
Since 1 June snowfall 0.0 0.0  
Since 1 July snowfall 0.0 0.0  
Snow Depth 0.00 in    
Sea Level Pressure  
Sea Level Pressure 29.99 in    
Wind  
Wind Speed 6 mph (NW)    
Max Wind Speed 18 mph    
Max Gust Speed 24 mph    
Visibility 10 miles    
Events      
T = Trace of Precipitation, MM = Missing Value Source: NWS Daily Summary

Daily Weather History Graph

Daily Weather History Graph

Search for Another Location

Airport or City:

Trip Planner

Search our weather history database for the weather conditions in past years. The results will help you decide how hot, cold, wet, or windy it might be!

Date:

Astronomy

Aug. 05, 2013 Rise Set
Actual Time 5:48 AM EDT 8:04 PM EDT
Civil Twilight 5:17 AM EDT 8:35 PM EDT
Nautical Twilight 4:39 AM EDT 9:13 PM EDT
Astronomical Twilight 3:56 AM EDT 9:55 PM EDT
Moon 4:41 AM EDT (8/5) 7:02 PM EDT (8/5)
Length of Visible Light 15h 17m
Length of Day
14h 15m
Waning Crescent, 1% of the Moon is Illuminated
Aug 5
Waning Crescent
Aug 6
New
Aug 14
First Quarter
Aug 20
Full
Aug 28
Last Quarter

Hourly Weather History & Observations

Time (EDT) Temp. Dew Point Humidity Pressure Visibility Wind Dir Wind Speed Gust Speed Precip Events Conditions
12:51 AM 60.1 °F 52.0 °F 75% 29.94 in 10.0 mi WNW 3.5 mph - N/A   Clear
1:51 AM 55.9 °F 52.0 °F 87% 29.93 in 10.0 mi NNE 3.5 mph - N/A   Clear
2:51 AM 55.9 °F 52.0 °F 87% 29.94 in 10.0 mi Calm Calm - N/A   Clear
3:51 AM 55.9 °F 52.0 °F 87% 29.95 in 10.0 mi Calm Calm - N/A   Clear
4:51 AM 54.0 °F 51.1 °F 90% 29.96 in 10.0 mi Calm Calm - N/A   Partly Cloudy
5:51 AM 55.0 °F 51.1 °F 86% 29.98 in 10.0 mi NW 4.6 mph - N/A   Partly Cloudy
6:51 AM 59.0 °F 53.1 °F 81% 30.00 in 10.0 mi NNW 6.9 mph - N/A   Partly Cloudy
7:51 AM 62.1 °F 53.1 °F 72% 30.01 in 10.0 mi WNW 9.2 mph - N/A   Partly Cloudy
8:51 AM 64.9 °F 46.9 °F 52% 30.02 in 10.0 mi NNW 11.5 mph - N/A   Scattered Clouds
9:51 AM 66.9 °F 45.0 °F 45% 30.02 in 10.0 mi NNW 12.7 mph - N/A   Scattered Clouds
10:51 AM 70.0 °F 44.1 °F 39% 30.01 in 10.0 mi NNW 12.7 mph 19.6 mph N/A   Partly Cloudy
11:51 AM 72.0 °F 44.1 °F 37% 30.00 in 10.0 mi NNW 9.2 mph - N/A   Partly Cloudy
12:51 PM 73.9 °F 42.1 °F 32% 29.99 in 10.0 mi NNW 9.2 mph 18.4 mph N/A   Partly Cloudy
1:51 PM 75.9 °F 43.0 °F 31% 29.99 in 10.0 mi North 12.7 mph 18.4 mph N/A   Partly Cloudy
2:51 PM 77.0 °F 45.0 °F 32% 29.98 in 10.0 mi WNW 10.4 mph 23.0 mph N/A   Partly Cloudy
3:51 PM 77.0 °F 45.0 °F 32% 29.97 in 10.0 mi NW 13.8 mph - N/A   Partly Cloudy
4:51 PM 77.0 °F 45.0 °F 32% 29.96 in 10.0 mi NNW 11.5 mph - N/A   Partly Cloudy
5:51 PM 75.9 °F 45.0 °F 33% 29.98 in 10.0 mi NW 8.1 mph - N/A   Partly Cloudy
6:51 PM 75.0 °F 46.0 °F 36% 29.99 in 10.0 mi WNW 6.9 mph - N/A   Partly Cloudy
7:51 PM 70.0 °F 50.0 °F 49% 30.01 in 10.0 mi NW 3.5 mph - N/A   Partly Cloudy
8:51 PM 69.1 °F 46.9 °F 45% 30.03 in 10.0 mi Calm Calm - N/A   Partly Cloudy
9:51 PM 63.0 °F 51.1 °F 65% 30.04 in 10.0 mi Calm Calm - N/A   Clear
10:51 PM 62.1 °F 52.0 °F 70% 30.04 in 10.0 mi West 4.6 mph - N/A   Partly Cloudy
11:51 PM 57.9 °F 52.0 °F 81% 30.05 in 10.0 mi Calm Calm - N/A   Scattered Clouds